�N����,����,�~����,�C��,���x,�C��,����,���ϕ���,�ő�u�ԕ���,�ő厞����,���˗�,�I�_���x,�n�����x,�ő啗���N��,DTYPE
"17/06/21","00:10",0.0,21.9,73.8,1002.4,14.7,0.8,2.0,353.8,0.00,17.1,22.7,"00:05:20",1
"17/06/21","00:20",0.0,22.0,72.6,1002.2,14.5,0.7,1.8,19.1,0.00,16.9,22.8,"00:16:24",1
"17/06/21","00:30",0.0,22.4,70.8,1002.2,113.1,1.1,3.4,111.8,0.00,16.9,22.7,"00:24:08",1
"17/06/21","00:40",0.0,22.4,71.6,1001.9,38.0,1.0,2.8,114.1,0.00,17.1,22.7,"00:36:32",1
"17/06/21","00:50",0.0,22.0,74.4,1002.2,86.1,1.2,3.3,119.7,0.00,17.3,22.6,"00:48:32",1
"17/06/21","01:00",0.0,21.7,76.7,1002.2,96.3,1.1,2.6,100.9,0.00,17.5,22.6,"00:51:04",1
"17/06/21","01:10",0.0,21.6,78.6,1001.7,101.9,1.3,4.8,112.2,0.00,17.8,22.5,"01:05:40",1
"17/06/21","01:20",0.0,21.5,80.0,1001.7,86.7,1.6,5.2,81.6,0.00,17.9,22.4,"01:17:12",1
"17/06/21","01:30",0.0,21.5,81.0,1001.7,85.4,1.5,4.1,125.3,0.00,18.1,22.2,"01:22:00",1
"17/06/21","01:40",0.0,21.3,82.2,1001.5,85.7,1.5,3.4,103.6,0.00,18.2,22.2,"01:34:08",1
"17/06/21","01:50",0.0,21.1,83.4,1001.0,90.4,1.2,2.9,39.7,0.00,18.2,22.1,"01:42:48",1
"17/06/21","02:00",0.0,20.8,84.8,1001.0,106.2,1.3,3.6,138.1,0.00,18.2,22.1,"01:53:12",1
"17/06/21","02:10",0.0,20.5,86.3,1001.2,116.3,1.1,2.4,88.5,0.00,18.2,21.8,"02:07:36",1
"17/06/21","02:20",0.0,20.3,87.6,1000.8,134.3,0.7,2.1,114.8,0.00,18.2,21.7,"02:15:54",1
"17/06/21","02:30",0.0,20.2,88.8,1001.0,128.2,1.0,2.5,98.8,0.00,18.3,21.9,"02:20:48",1
"17/06/21","02:40",0.0,20.2,89.4,1000.8,124.5,0.8,1.8,131.9,0.00,18.4,21.8,"02:36:24",1
"17/06/21","02:50",0.0,20.1,90.0,1000.8,116.7,0.8,1.8,126.9,0.00,18.4,21.6,"02:41:44",1
"17/06/21","03:00",0.0,20.0,90.7,1000.5,125.6,1.0,2.4,113.6,0.00,18.5,21.6,"02:56:00",1
"17/06/21","03:10",0.0,19.9,90.9,1000.5,107.7,1.0,2.1,104.0,0.00,18.4,21.2,"03:02:08",1
"17/06/21","03:20",0.0,19.9,91.3,1000.5,108.7,1.0,2.5,149.7,0.00,18.5,21.2,"03:18:08",1
"17/06/21","03:30",0.0,19.8,91.6,1000.0,118.6,0.8,1.8,156.7,0.00,18.4,21.1,"03:26:00",1
"17/06/21","03:40",0.0,19.7,91.9,999.8,129.8,1.0,2.4,104.2,0.00,18.4,21.1,"03:38:16",1
"17/06/21","03:50",0.0,19.7,92.1,1000.0,112.4,0.8,2.2,166.5,0.00,18.4,21.2,"03:44:24",1
"17/06/21","04:00",0.0,19.7,92.1,1000.0,126.1,0.8,1.7,121.7,0.00,18.4,21.0,"03:50:56",1
"17/06/21","04:10",0.0,19.6,92.1,999.8,125.0,1.0,2.9,121.3,0.00,18.3,21.1,"04:08:24",1
"17/06/21","04:20",0.0,19.5,91.9,1000.0,91.1,1.1,2.8,111.8,0.00,18.2,20.9,"04:18:32",1
"17/06/21","04:30",0.0,19.3,91.9,999.8,88.8,1.5,4.2,73.1,0.00,18.0,20.9,"04:26:24",1
"17/06/21","04:40",0.0,19.1,91.9,999.8,120.5,1.1,3.4,107.3,0.00,17.8,20.8,"04:37:04",1
"17/06/21","04:50",0.0,18.9,91.9,999.6,85.8,1.1,2.4,112.2,0.00,17.6,20.4,"04:40:40",1
"17/06/21","05:00",0.0,18.7,92.1,999.6,94.6,0.7,1.8,71.6,0.00,17.4,20.3,"04:53:28",1
"17/06/21","05:10",0.2,18.5,92.4,999.3,101.4,1.2,2.8,86.3,0.00,17.3,20.1,"05:01:52",1
"17/06/21","05:20",0.0,18.3,92.8,999.1,125.2,1.0,2.6,127.5,0.00,17.2,19.3,"05:14:32",1
"17/06/21","05:30",0.0,18.2,93.3,999.3,172.6,1.0,2.9,159.0,0.00,17.1,19.4,"05:22:32",1
"17/06/21","05:40",0.0,18.2,93.5,998.9,42.8,0.7,1.8,200.4,0.00,17.2,19.5,"05:30:16",1
"17/06/21","05:50",0.0,18.2,93.7,998.9,81.7,0.7,2.2,95.3,0.00,17.2,19.3,"05:44:40",1
"17/06/21","06:00",0.0,18.2,93.9,998.6,65.9,0.6,1.7,105.7,0.00,17.2,19.3,"05:52:08",1
"17/06/21","06:10",0.0,18.3,94.1,998.2,48.8,0.7,1.7,68.5,0.00,17.4,19.2,"06:09:04",1
"17/06/21","06:20",0.0,18.4,94.2,998.2,85.3,1.1,2.6,82.8,0.00,17.5,18.7,"06:19:32",1
"17/06/21","06:30",0.0,18.4,94.3,998.2,88.3,1.0,2.8,104.1,0.00,17.5,18.9,"06:21:12",1
"17/06/21","06:40",0.0,18.5,94.4,997.9,41.4,0.8,2.2,114.7,0.00,17.6,18.9,"06:30:48",1
"17/06/21","06:50",0.0,18.6,94.4,998.4,83.1,1.3,3.4,139.9,0.00,17.7,18.7,"06:49:08",1
"17/06/21","07:00",0.0,18.6,94.4,998.2,351.4,1.1,3.2,80.9,0.00,17.7,18.7,"06:57:12",1
"17/06/21","07:10",0.0,18.7,94.4,997.9,222.8,1.0,3.5,16.9,0.00,17.8,18.8,"07:07:20",1
"17/06/21","07:20",0.0,18.7,94.5,997.7,99.9,1.0,2.9,113.4,0.00,17.8,18.6,"07:16:24",1
"17/06/21","07:30",0.0,18.7,94.3,997.4,130.5,1.0,2.6,166.1,0.00,17.8,19.1,"07:23:30",1
"17/06/21","07:40",0.0,18.7,94.5,997.7,97.7,1.0,2.7,161.3,0.01,17.8,19.1,"07:34:16",1
"17/06/21","07:50",0.0,18.7,94.6,997.4,76.5,1.1,3.6,211.0,0.01,17.9,19.2,"07:40:24",1
"17/06/21","08:00",0.0,18.8,94.6,997.7,139.0,1.0,3.1,172.2,0.01,18.0,19.2,"07:59:12",1
"17/06/21","08:10",0.0,18.9,94.7,997.2,143.3,0.8,2.2,49.3,0.02,18.1,19.5,"08:00:08",1
"17/06/21","08:20",0.0,18.8,94.4,997.2,92.5,0.8,2.2,4.7,0.02,17.9,19.5,"08:19:36",1
"17/06/21","08:30",0.0,18.7,94.3,997.2,130.5,1.1,2.5,33.1,0.01,17.8,19.4,"08:21:04",1
"17/06/21","08:40",0.0,18.7,94.5,997.2,140.0,1.1,2.9,135.2,0.02,17.8,19.5,"08:38:40",1
"17/06/21","08:50",0.0,18.8,94.5,997.0,181.2,0.7,1.8,226.6,0.03,17.9,19.7,"08:47:44",1
"17/06/21","09:00",0.0,18.9,94.5,997.0,233.4,1.1,1.9,228.2,0.04,18.0,19.6,"08:55:28",1
"17/06/21","09:10",0.0,18.9,94.3,997.0,310.0,1.0,2.5,333.7,0.03,18.0,19.6,"09:01:44",1
"17/06/21","09:20",0.0,19.3,94.6,996.7,331.9,0.8,1.7,328.6,0.09,18.5,19.7,"09:13:52",1
"17/06/21","09:30",0.0,19.5,94.1,996.5,300.6,0.6,1.3,351.6,0.13,18.6,19.7,"09:24:16",1
"17/06/21","09:40",0.0,19.8,93.7,996.0,276.6,0.5,1.2,248.5,0.09,18.8,19.9,"09:35:12",1
"17/06/21","09:50",0.0,19.9,93.4,996.3,247.8,0.7,1.6,244.3,0.05,18.8,20.0,"09:44:24",1
"17/06/21","10:00",0.0,20.1,93.2,996.0,273.8,0.5,1.2,238.7,0.08,19.0,19.8,"09:54:48",1
"17/06/21","10:10",0.0,20.5,91.3,996.0,261.3,0.7,1.7,236.0,0.17,19.1,19.9,"10:04:16",1
"17/06/21","10:20",0.0,20.5,90.9,996.3,245.1,0.6,1.4,213.4,0.05,19.0,20.2,"10:18:08",1
"17/06/21","10:30",0.0,20.7,91.7,996.0,217.0,0.6,1.3,228.3,0.07,19.3,20.2,"10:23:20",1
"17/06/21","10:40",0.0,20.9,90.7,995.6,172.7,0.3,0.9,178.6,0.10,19.4,20.2,"10:32:40",1
"17/06/21","10:50",0.0,20.9,90.4,995.8,228.6,0.2,0.8,255.3,0.04,19.3,20.4,"10:40:02",1
"17/06/21","11:00",0.0,20.7,90.7,995.8,288.8,0.3,1.0,248.6,0.02,19.2,20.3,"10:51:44",1
"17/06/21","11:10",0.0,20.7,91.5,995.6,346.2,0.6,1.1,344.2,0.05,19.3,20.4,"11:00:16",1
"17/06/21","11:20",0.0,20.7,92.2,995.6,240.6,0.5,1.2,234.1,0.06,19.4,20.5,"11:16:48",1
"17/06/21","11:30",0.0,20.6,92.9,995.3,228.0,1.0,1.7,231.1,0.09,19.5,20.5,"11:22:16",1
"17/06/21","11:40",0.0,20.8,93.3,995.3,232.8,0.5,1.3,237.1,0.07,19.7,20.5,"11:31:12",1
"17/06/21","11:50",0.0,21.0,93.2,995.1,224.4,0.7,1.6,205.6,0.08,19.9,20.6,"11:40:40",1
"17/06/21","12:00",0.0,21.0,93.6,995.1,222.3,0.6,1.2,239.2,0.08,20.0,20.7,"11:55:44",1
"17/06/21","12:10",0.0,21.0,93.5,994.8,236.1,0.7,1.2,237.7,0.13,20.0,20.6,"12:07:04",1
"17/06/21","12:20",0.0,21.4,93.6,994.8,213.3,0.6,1.1,238.2,0.11,20.4,20.7,"12:12:08",1
"17/06/21","12:30",0.0,21.6,92.9,995.3,208.2,0.5,1.2,238.1,0.08,20.4,20.8,"12:20:56",1
"17/06/21","12:40",0.0,21.6,93.1,994.8,200.1,0.6,1.2,221.0,0.07,20.5,20.9,"12:37:04",1
"17/06/21","12:50",0.0,21.7,92.8,995.1,189.1,0.7,1.3,188.1,0.08,20.5,20.7,"12:47:44",1
"17/06/21","13:00",0.0,21.7,93.1,995.1,193.7,0.7,1.3,186.1,0.10,20.6,21.2,"12:51:12",1
"17/06/21","13:10",0.2,21.9,92.3,994.8,203.4,0.6,1.7,197.8,0.13,20.6,21.1,"13:05:44",1
"17/06/21","13:20",0.0,21.9,92.1,994.8,219.0,1.0,1.9,221.5,0.07,20.6,21.1,"13:11:36",1
"17/06/21","13:30",0.0,22.1,92.0,994.6,229.3,0.3,1.0,261.0,0.08,20.8,21.2,"13:23:04",1
"17/06/21","13:40",0.0,22.2,91.5,994.4,213.6,0.2,0.9,230.1,0.06,20.8,21.2,"13:34:56",1
"17/06/21","13:50",0.0,22.2,91.7,994.8,242.7,0.5,1.1,336.6,0.05,20.8,21.4,"13:45:36",1
"17/06/21","14:00",0.0,22.1,91.8,994.8,226.1,0.8,1.7,235.0,0.04,20.7,21.3,"13:54:48",1
"17/06/21","14:10",0.0,21.9,91.7,994.8,206.0,1.0,2.0,222.0,0.03,20.5,21.5,"14:09:12",1
"17/06/21","14:20",0.0,21.9,91.9,995.1,207.1,1.1,1.8,205.3,0.04,20.6,21.5,"14:17:28",1
"17/06/21","14:30",0.0,21.9,92.0,995.1,201.4,1.1,2.2,229.9,0.05,20.6,21.5,"14:25:44",1
"17/06/21","14:40",0.0,21.8,92.2,994.8,204.3,0.8,1.7,224.8,0.03,20.5,21.5,"14:34:56",1
"17/06/21","14:50",0.0,21.9,92.4,994.6,218.2,0.8,1.6,229.3,0.05,20.7,21.6,"14:44:32",1
"17/06/21","15:00",0.0,21.9,92.3,995.1,215.4,0.8,2.0,228.4,0.02,20.6,21.6,"14:50:48",1
"17/06/21","15:10",0.0,21.7,92.3,995.1,217.9,0.7,1.4,188.4,0.01,20.4,21.6,"15:00:16",1
"17/06/21","15:20",0.0,21.9,92.6,995.3,206.6,0.3,1.2,209.2,0.05,20.7,21.6,"15:15:44",1
"17/06/21","15:30",0.0,22.1,92.7,995.1,206.1,0.3,1.2,215.5,0.05,20.9,21.5,"15:22:24",1
"17/06/21","15:40",0.0,22.1,92.4,995.3,218.7,0.6,1.3,221.1,0.06,20.8,21.5,"15:32:08",1
"17/06/21","15:50",0.0,22.2,91.9,995.6,250.1,0.3,1.0,257.8,0.06,20.9,21.7,"15:41:52",1
"17/06/21","16:00",0.0,22.4,91.6,995.3,323.3,0.1,0.5,298.5,0.05,21.0,21.8,"15:50:48",1
"17/06/21","16:10",0.0,22.4,91.4,995.6,192.2,0.6,1.9,218.7,0.04,21.0,21.6,"16:04:40",1
"17/06/21","16:20",0.0,22.7,91.8,995.6,205.8,1.0,2.0,206.8,0.09,21.3,21.7,"16:11:28",1
"17/06/21","16:30",0.0,22.7,91.2,995.6,159.7,0.5,1.0,124.9,0.04,21.2,21.7,"16:21:12",1
"17/06/21","16:40",0.0,22.6,91.3,995.8,71.0,0.3,1.2,109.5,0.02,21.1,21.8,"16:34:24",1
"17/06/21","16:50",0.0,22.8,91.2,995.8,35.3,0.3,1.0,9.6,0.07,21.3,21.9,"16:40:02",1
"17/06/21","17:00",0.0,23.4,91.0,995.6,279.4,0.3,1.2,33.1,0.12,21.9,21.8,"16:50:08",1
"17/06/21","17:10",0.0,23.7,90.1,996.0,293.7,0.7,2.1,342.1,0.13,22.0,22.0,"17:04:24",1
"17/06/21","17:20",0.0,23.9,88.1,996.0,335.2,0.7,1.9,336.6,0.08,21.8,21.9,"17:17:20",1
"17/06/21","17:30",0.0,23.5,88.5,996.0,345.0,0.8,1.6,346.2,0.04,21.5,22.2,"17:23:04",1
"17/06/21","17:40",0.0,23.4,89.6,996.0,296.7,0.2,0.8,279.4,0.04,21.6,22.1,"17:30:08",1
"17/06/21","17:50",0.0,23.4,89.6,996.3,313.4,0.6,1.0,344.6,0.03,21.6,22.3,"17:48:24",1
"17/06/21","18:00",0.0,23.4,90.3,996.5,340.5,0.6,1.0,343.9,0.02,21.8,22.2,"17:51:12",1
"17/06/21","18:10",0.0,23.3,90.6,996.5,309.4,0.5,1.1,304.2,0.00,21.7,22.2,"18:01:36",1
"17/06/21","18:20",0.0,23.1,91.1,997.0,329.6,0.3,1.2,320.2,0.00,21.6,22.1,"18:14:24",1
"17/06/21","18:30",0.0,23.2,91.5,997.4,356.1,0.7,1.4,339.1,0.00,21.8,22.2,"18:26:32",1
"17/06/21","18:40",0.0,23.0,91.4,997.4,337.3,0.6,1.8,345.9,0.00,21.6,22.3,"18:39:12",1
"17/06/21","18:50",0.0,22.9,91.4,997.4,293.3,1.0,2.6,338.3,0.00,21.5,22.3,"18:41:36",1
"17/06/21","19:00",0.0,22.9,91.3,998.2,317.4,0.6,2.2,350.5,0.00,21.4,22.1,"18:52:56",1
"17/06/21","19:10",0.0,22.9,91.2,998.2,317.1,0.5,0.9,338.9,0.00,21.4,22.1,"19:08:00",1
"17/06/21","19:20",0.0,22.4,89.1,998.6,330.5,1.0,2.6,4.8,0.00,20.6,22.0,"19:16:48",1
"17/06/21","19:30",0.0,22.4,85.1,998.6,331.1,1.8,4.7,314.7,0.00,19.8,22.0,"19:24:08",1
"17/06/21","19:40",0.0,22.2,83.6,999.6,300.9,1.2,3.4,299.3,0.00,19.3,21.8,"19:34:00",1
"17/06/21","19:50",0.0,21.8,83.0,999.6,281.6,1.2,3.4,310.5,0.00,18.8,21.9,"19:40:32",1
"17/06/21","20:00",0.0,21.5,82.9,1000.0,267.5,1.1,2.7,336.4,0.00,18.5,22.0,"19:52:40",1
"17/06/21","20:10",0.0,21.2,83.0,1000.5,295.7,0.8,2.0,290.6,0.00,18.2,21.6,"20:06:32",1
"17/06/21","20:20",0.0,21.0,83.0,1000.3,320.8,1.5,2.7,319.0,0.00,18.0,21.6,"20:17:04",1
"17/06/21","20:30",0.0,20.7,83.4,1000.8,280.7,1.1,2.5,305.6,0.00,17.8,21.5,"20:29:12",1
"17/06/21","20:40",0.0,20.4,83.6,1001.0,269.2,1.2,2.5,255.8,0.00,17.6,21.4,"20:31:20",1
"17/06/21","20:50",0.0,20.3,83.6,1001.5,289.9,0.8,1.9,313.4,0.00,17.5,21.5,"20:45:44",1
"17/06/21","21:00",0.0,20.3,83.4,1001.2,327.2,1.2,2.5,345.2,0.00,17.4,21.5,"20:57:12",1
"17/06/21","21:10",0.0,20.2,82.9,1001.5,311.3,1.2,2.6,317.4,0.00,17.2,21.2,"21:03:04",1
"17/06/21","21:20",0.0,20.3,82.3,1001.5,284.2,1.3,2.8,264.0,0.00,17.2,21.4,"21:15:20",1
"17/06/21","21:30",0.0,20.3,81.6,1001.9,292.7,1.7,4.9,324.1,0.00,17.1,21.3,"21:28:40",1
"17/06/21","21:40",0.0,20.2,82.0,1001.9,321.4,1.5,2.8,354.7,0.00,17.1,21.2,"21:38:16",1
"17/06/21","21:50",0.0,20.2,81.6,1002.2,318.4,1.8,5.2,351.1,0.00,17.0,21.1,"21:41:44",1
"17/06/21","22:00",0.2,20.2,81.4,1001.9,301.8,1.5,3.6,326.2,0.00,17.0,20.9,"21:57:36",1
"17/06/21","22:10",0.0,20.1,81.8,1002.2,288.0,1.2,3.2,341.7,0.00,16.9,20.9,"22:06:00",1
"17/06/21","22:20",0.0,20.0,82.5,1002.6,292.6,1.1,2.6,349.7,0.00,17.0,20.7,"22:10:48",1
"17/06/21","22:30",0.0,19.9,82.9,1002.9,334.8,1.3,2.4,319.5,0.00,16.9,20.9,"22:23:04",1
"17/06/21","22:40",0.0,19.7,83.3,1002.4,333.3,1.5,2.9,352.8,0.00,16.8,20.8,"22:34:16",1
"17/06/21","22:50",0.0,19.6,83.8,1003.1,327.0,1.3,2.4,342.1,0.00,16.8,20.5,"22:43:28",1
"17/06/21","23:00",0.0,19.5,84.3,1002.9,316.2,1.1,2.8,355.9,0.00,16.8,20.8,"22:50:02",1
"17/06/21","23:10",0.0,19.5,84.5,1003.1,328.9,1.1,2.6,347.8,0.00,16.9,20.7,"23:07:04",1
"17/06/21","23:20",0.0,19.5,85.0,1002.9,340.8,1.2,2.7,336.9,0.00,17.0,20.6,"23:10:24",1
"17/06/21","23:30",0.0,19.3,85.2,1002.9,339.0,1.2,2.5,345.1,0.00,16.8,20.7,"23:20:16",1
"17/06/21","23:40",0.0,19.3,85.7,1002.9,352.4,0.8,1.9,26.3,0.00,16.9,20.6,"23:33:36",1
"17/06/21","23:50",0.0,19.2,86.2,1002.9,338.3,0.8,1.9,345.1,0.00,16.9,20.6,"23:49:36",1
"17/06/21","24:00",0.0,19.0,86.2,1002.6,349.2,0.8,1.9,263.6,0.00,16.7,20.5,"23:55:12",1
